When you browse on this site, cookies collect data to enhance your experience and personalize the content and advertising you see.
Visit our Privacy Policy to learn more. By continuing to use the site, you agree to this use of cookies and data.
  • en Belgique
  • Liste des pays
  • À 7 jours
  • Température de l'eau
  • Carte météo
  • Widgets météo
  • user-avatar
    Se connecter

    Météo par heure à Kostygovo

    Ce jour, 17 Août, Samedi

    Heure Température Précipitation Vent Pression Humidité
    00:00 +12°C° 0 mm 1 m/s 749 mmHg 89%
    01:00 +12°C° 0 mm 1 m/s 749 mmHg 91%
    02:00 +11°C° 0 mm 1 m/s 749 mmHg 92%
    03:00 +11°C° 0 mm 1 m/s 749 mmHg 92%
    04:00 +11°C° 0 mm 1 m/s 749 mmHg 92%
    05:00 +11°C° 0 mm 1 m/s 749 mmHg 93%
    06:00 +13°C° 0 mm 2 m/s 749 mmHg 86%
    07:00 +15°C° 0 mm 2 m/s 749 mmHg 80%
    08:00 +17°C° 0 mm 2 m/s 749 mmHg 73%
    09:00 +18°C° 0 mm 3 m/s 749 mmHg 67%
    10:00 +20°C° 0 mm 3 m/s 749 mmHg 61%
    11:00 +21°C° 0 mm 3 m/s 749 mmHg 55%
    12:00 +21°C° 0 mm 3 m/s 749 mmHg 55%
    13:00 +21°C° 0 mm 4 m/s 749 mmHg 55%
    14:00 +22°C° 0 mm 4 m/s 749 mmHg 54%
    15:00 +21°C° 0 mm 3 m/s 748 mmHg 59%
    16:00 +20°C° 0 mm 3 m/s 748 mmHg 63%
    17:00 +19°C° 0 mm 3 m/s 748 mmHg 68%
    18:00 +18°C° 0 mm 3 m/s 748 mmHg 72%
    19:00 +17°C° 0 mm 3 m/s 747 mmHg 75%
    20:00 +14°C° 0 mm 3 m/s 747 mmHg 79%
    21:00 +14°C° 0 mm 3 m/s 747 mmHg 81%
    22:00 +14°C° 0 mm 3 m/s 746 mmHg 82%
    23:00 +14°C° 0 mm 3 m/s 746 mmHg 83%

    Demain, 18 Août, Dimanche

    Heure Température Précipitation Vent Pression Humidité
    00:00 +14°C° 0 mm 3 m/s 746 mmHg 84%
    01:00 +14°C° 0 mm 3 m/s 745 mmHg 84%
    02:00 +14°C° 0 mm 3 m/s 745 mmHg 85%
    03:00 +13°C° 0.4 mm 4 m/s 745 mmHg 88%
    04:00 +13°C° 0.4 mm 4 m/s 744 mmHg 91%
    05:00 +13°C° 0.4 mm 4 m/s 744 mmHg 94%
    06:00 +13°C° 0.7 mm 4 m/s 743 mmHg 95%
    07:00 +13°C° 0.7 mm 4 m/s 743 mmHg 96%
    08:00 +13°C° 0.7 mm 4 m/s 743 mmHg 97%
    09:00 +13°C° 0.9 mm 4 m/s 743 mmHg 97%
    10:00 +13°C° 0.9 mm 4 m/s 743 mmHg 97%
    11:00 +13°C° 0.9 mm 4 m/s 743 mmHg 97%
    12:00 +13°C° 0.8 mm 4 m/s 743 mmHg 97%
    13:00 +13°C° 0.8 mm 4 m/s 743 mmHg 97%
    14:00 +13°C° 0.8 mm 4 m/s 743 mmHg 98%
    15:00 +13°C° 0.2 mm 3 m/s 743 mmHg 97%
    16:00 +13°C° 0.2 mm 3 m/s 743 mmHg 97%
    17:00 +13°C° 0.2 mm 3 m/s 743 mmHg 97%
    18:00 +13°C° 0 mm 3 m/s 744 mmHg 97%
    19:00 +13°C° 0 mm 3 m/s 744 mmHg 97%
    20:00 +13°C° 0 mm 3 m/s 744 mmHg 97%
    21:00 +13°C° 0 mm 3 m/s 744 mmHg 97%
    22:00 +13°C° 0 mm 3 m/s 745 mmHg 97%
    23:00 +12°C° 0 mm 3 m/s 745 mmHg 97%

    Après-demain, 19 Août, Lundi

    Heure Température Précipitation Vent Pression Humidité
    00:00 +12°C° 0 mm 3 m/s 745 mmHg 97%
    01:00 +11°C° 0 mm 3 m/s 746 mmHg 97%
    02:00 +12°C° 0 mm 2 m/s 746 mmHg 97%
    03:00 +12°C° 0 mm 2 m/s 746 mmHg 97%
    04:00 +12°C° 0 mm 2 m/s 746 mmHg 97%
    05:00 +12°C° 0 mm 2 m/s 747 mmHg 98%
    06:00 +13°C° 0 mm 2 m/s 747 mmHg 93%
    07:00 +15°C° 0 mm 2 m/s 748 mmHg 88%
    08:00 +17°C° 0 mm 2 m/s 748 mmHg 83%
    09:00 +19°C° 0 mm 3 m/s 748 mmHg 74%
    10:00 +21°C° 0 mm 3 m/s 748 mmHg 66%
    11:00 +24°C° 0 mm 3 m/s 748 mmHg 57%
    12:00 +24°C° 0 mm 3 m/s 749 mmHg 57%
    13:00 +25°C° 0 mm 3 m/s 749 mmHg 56%
    14:00 +26°C° 0 mm 3 m/s 749 mmHg 56%
    15:00 +25°C° 0 mm 3 m/s 749 mmHg 61%
    16:00 +25°C° 0 mm 2 m/s 749 mmHg 67%
    17:00 +25°C° 0 mm 2 m/s 749 mmHg 72%
    18:00 +23°C° 0 mm 2 m/s 749 mmHg 78%
    19:00 +20°C° 0 mm 2 m/s 749 mmHg 84%
    20:00 +18°C° 0 mm 2 m/s 750 mmHg 90%
    21:00 +18°C° 0 mm 2 m/s 750 mmHg 90%
    22:00 +18°C° 0 mm 2 m/s 750 mmHg 91%
    23:00 +18°C° 0 mm 2 m/s 750 mmHg 91%

    20 Août, Mardi

    Heure Température Précipitation Vent Pression Humidité
    00:00 +18°C° 0 mm 2 m/s 750 mmHg 93%
    01:00 +17°C° 0 mm 2 m/s 750 mmHg 94%
    02:00 +17°C° 0 mm 2 m/s 750 mmHg 96%
    03:00 +17°C° 0 mm 2 m/s 751 mmHg 97%
    04:00 +17°C° 0 mm 2 m/s 751 mmHg 97%
    05:00 +17°C° 0 mm 2 m/s 751 mmHg 97%
    06:00 +18°C° 0.1 mm 2 m/s 751 mmHg 94%
    07:00 +19°C° 0.1 mm 2 m/s 751 mmHg 91%
    08:00 +20°C° 0.1 mm 2 m/s 751 mmHg 88%
    09:00 +21°C° 0 mm 2 m/s 751 mmHg 85%
    10:00 +23°C° 0 mm 2 m/s 752 mmHg 82%
    11:00 +24°C° 0 mm 2 m/s 752 mmHg 79%
    12:00 +24°C° 0.3 mm 2 m/s 752 mmHg 81%
    13:00 +23°C° 0.3 mm 2 m/s 752 mmHg 84%
    14:00 +23°C° 0.3 mm 2 m/s 752 mmHg 86%
    15:00 +23°C° 0.1 mm 1 m/s 752 mmHg 87%
    16:00 +22°C° 0.1 mm 1 m/s 751 mmHg 88%
    17:00 +22°C° 0.1 mm 1 m/s 751 mmHg 89%
    18:00 +21°C° 0.3 mm 1 m/s 751 mmHg 92%
    19:00 +20°C° 0.3 mm 1 m/s 751 mmHg 94%
    20:00 +19°C° 0.3 mm 1 m/s 751 mmHg 97%
    21:00 +18°C° 0.2 mm 1 m/s 752 mmHg 97%
    22:00 +18°C° 0.2 mm 1 m/s 752 mmHg 97%
    23:00 +18°C° 0.2 mm 1 m/s 752 mmHg 97%

    21 Août, Mercredi

    Heure Température Précipitation Vent Pression Humidité
    00:00 +18°C° 0.3 mm 1 m/s 752 mmHg 97%
    01:00 +16°C° 0.3 mm 1 m/s 752 mmHg 97%
    02:00 +16°C° 0.3 mm 1 m/s 752 mmHg 97%
    03:00 +16°C° 0 mm 1 m/s 752 mmHg 97%
    04:00 +16°C° 0 mm 1 m/s 752 mmHg 98%
    05:00 +15°C° 0 mm 1 m/s 752 mmHg 98%
    06:00 +18°C° 0 mm 1 m/s 752 mmHg 95%
    07:00 +19°C° 0 mm 1 m/s 752 mmHg 92%
    08:00 +21°C° 0 mm 1 m/s 753 mmHg 88%
    09:00 +22°C° 0 mm 1 m/s 753 mmHg 84%
    10:00 +23°C° 0 mm 1 m/s 752 mmHg 80%
    11:00 +24°C° 0 mm 1 m/s 752 mmHg 76%
    12:00 +24°C° 0 mm 1 m/s 752 mmHg 77%
    13:00 +24°C° 0 mm 1 m/s 752 mmHg 79%
    14:00 +24°C° 0 mm 2 m/s 751 mmHg 80%
    15:00 +24°C° 0 mm 1 m/s 751 mmHg 81%
    16:00 +23°C° 0 mm 1 m/s 751 mmHg 82%
    17:00 +23°C° 0 mm 1 m/s 750 mmHg 83%
    18:00 +22°C° 0.3 mm 1 m/s 750 mmHg 88%
    19:00 +20°C° 0.3 mm 2 m/s 749 mmHg 93%
    20:00 +19°C° 0.3 mm 2 m/s 749 mmHg 98%
    21:00 +19°C° 0.1 mm 2 m/s 749 mmHg 97%
    22:00 +20°C° 0.1 mm 3 m/s 748 mmHg 96%
    23:00 +20°C° 0.1 mm 3 m/s 748 mmHg 96%

    22 Août, Jeudi

    Heure Température Précipitation Vent Pression Humidité
    00:00 +20°C° 0.1 mm 3 m/s 748 mmHg 95%
    01:00 +19°C° 0.1 mm 3 m/s 747 mmHg 95%
    02:00 +19°C° 0.1 mm 3 m/s 747 mmHg 95%
    03:00 +19°C° 0 mm 3 m/s 747 mmHg 95%
    04:00 +18°C° 0 mm 3 m/s 747 mmHg 95%
    05:00 +18°C° 0 mm 3 m/s 747 mmHg 96%
    06:00 +18°C° 0 mm 4 m/s 747 mmHg 94%
    07:00 +17°C° 0 mm 4 m/s 748 mmHg 93%
    08:00 +16°C° 0 mm 5 m/s 748 mmHg 91%
    09:00 +16°C° 0 mm 5 m/s 749 mmHg 87%
    10:00 +16°C° 0 mm 5 m/s 750 mmHg 82%
    11:00 +16°C° 0 mm 5 m/s 750 mmHg 78%
    12:00 +18°C° 0 mm 4 m/s 751 mmHg 72%
    13:00 +19°C° 0 mm 4 m/s 751 mmHg 66%
    14:00 +20°C° 0 mm 4 m/s 751 mmHg 60%
    15:00 +20°C° 0 mm 3 m/s 751 mmHg 62%
    16:00 +20°C° 0 mm 3 m/s 752 mmHg 65%
    17:00 +20°C° 0 mm 2 m/s 752 mmHg 67%
    18:00 +18°C° 0 mm 2 m/s 752 mmHg 73%
    19:00 +16°C° 0 mm 2 m/s 752 mmHg 78%
    20:00 +14°C° 0 mm 2 m/s 752 mmHg 83%
    21:00 +14°C° 0 mm 2 m/s 752 mmHg 86%
    22:00 +13°C° 0 mm 2 m/s 753 mmHg 89%
    23:00 +13°C° 0 mm 2 m/s 753 mmHg 92%
    Voir plus